Year,Month,Day,Hour,Minute,Value (Times are PST for temperature in C)
2009,07,28,00,00,21.60
2009,07,28,00,01,21.60
2009,07,28,00,02,21.60
2009,07,28,00,03,21.60
2009,07,28,00,04,21.50
2009,07,28,00,05,21.40
2009,07,28,00,06,21.40
2009,07,28,00,07,21.40
2009,07,28,00,08,21.40
2009,07,28,00,09,21.30
2009,07,28,00,10,21.30
2009,07,28,00,11,21.30
2009,07,28,00,12,21.30
2009,07,28,00,13,21.30
2009,07,28,00,14,21.30
2009,07,28,00,15,21.30
2009,07,28,00,16,21.30
2009,07,28,00,17,21.30
2009,07,28,00,18,21.30
2009,07,28,00,19,21.30
2009,07,28,00,20,21.40
2009,07,28,00,21,21.40
2009,07,28,00,22,21.40
2009,07,28,00,23,21.40
2009,07,28,00,24,21.30
2009,07,28,00,25,21.30
2009,07,28,00,26,21.40
2009,07,28,00,27,21.30
2009,07,28,00,28,21.30
2009,07,28,00,29,21.30
2009,07,28,00,30,21.30
2009,07,28,00,31,21.30
2009,07,28,00,32,21.30
2009,07,28,00,33,21.30
2009,07,28,00,34,21.30
2009,07,28,00,35,21.30
2009,07,28,00,36,21.20
2009,07,28,00,37,21.20
2009,07,28,00,38,21.10
2009,07,28,00,39,21.10
2009,07,28,00,40,21.00
2009,07,28,00,41,21.00
2009,07,28,00,42,20.90
2009,07,28,00,43,20.70
2009,07,28,00,44,20.60
2009,07,28,00,45,20.40
2009,07,28,00,46,20.30
2009,07,28,00,47,20.20
2009,07,28,00,48,20.00
2009,07,28,00,49,19.80
2009,07,28,00,50,19.60
2009,07,28,00,51,19.50
2009,07,28,00,52,19.30
2009,07,28,00,53,19.10
2009,07,28,00,54,18.90
2009,07,28,00,55,18.70
2009,07,28,00,56,18.60
2009,07,28,00,57,18.50
2009,07,28,00,58,18.40
2009,07,28,00,59,18.30
2009,07,28,01,00,18.20
2009,07,28,01,01,18.10
2009,07,28,01,02,18.10
2009,07,28,01,03,18.10
2009,07,28,01,04,18.00
2009,07,28,01,05,17.90
2009,07,28,01,06,17.90
2009,07,28,01,07,17.90
2009,07,28,01,08,17.90
2009,07,28,01,09,17.90
2009,07,28,01,10,17.90
2009,07,28,01,11,17.90
2009,07,28,01,12,17.90
2009,07,28,01,13,17.90
2009,07,28,01,14,17.90
2009,07,28,01,15,17.90
2009,07,28,01,16,17.90
2009,07,28,01,17,17.90
2009,07,28,01,18,17.90
2009,07,28,01,19,17.90
2009,07,28,01,20,17.90
2009,07,28,01,21,17.90
2009,07,28,01,22,17.90
2009,07,28,01,23,17.90
2009,07,28,01,24,17.90
2009,07,28,01,25,17.90
2009,07,28,01,26,17.90
2009,07,28,01,27,18.00
2009,07,28,01,28,18.00
2009,07,28,01,29,18.00
2009,07,28,01,30,18.10
2009,07,28,01,31,18.10
2009,07,28,01,32,18.10
2009,07,28,01,33,18.10
2009,07,28,01,34,18.10
2009,07,28,01,35,18.10
2009,07,28,01,36,18.10
2009,07,28,01,37,18.10
2009,07,28,01,38,18.10
2009,07,28,01,39,18.10
2009,07,28,01,40,18.10
2009,07,28,01,41,18.20
2009,07,28,01,42,18.20
2009,07,28,01,43,18.20
2009,07,28,01,44,18.20
2009,07,28,01,45,18.20
2009,07,28,01,46,18.20
2009,07,28,01,47,18.20
2009,07,28,01,48,18.20
2009,07,28,01,49,18.20
2009,07,28,01,50,18.20
2009,07,28,01,51,18.20
2009,07,28,01,52,18.20
2009,07,28,01,53,18.20
2009,07,28,01,54,18.20
2009,07,28,01,55,18.20
2009,07,28,01,56,18.20
2009,07,28,01,57,18.20
2009,07,28,01,58,18.20
2009,07,28,01,59,18.20
2009,07,28,02,00,18.20
2009,07,28,02,01,18.20
2009,07,28,02,02,18.20
2009,07,28,02,03,18.20
2009,07,28,02,04,18.20
2009,07,28,02,05,18.20
2009,07,28,02,06,18.20
2009,07,28,02,07,18.20
2009,07,28,02,08,18.10
2009,07,28,02,09,18.10
2009,07,28,02,10,18.10
2009,07,28,02,11,18.10
2009,07,28,02,12,18.10
2009,07,28,02,13,18.10
2009,07,28,02,14,18.10
2009,07,28,02,15,18.10
2009,07,28,02,16,18.10
2009,07,28,02,17,18.10
2009,07,28,02,18,18.10
2009,07,28,02,19,18.10
2009,07,28,02,20,18.10
2009,07,28,02,21,18.10
2009,07,28,02,22,18.10
2009,07,28,02,23,18.10
2009,07,28,02,24,18.10
2009,07,28,02,25,18.10
2009,07,28,02,26,18.10
2009,07,28,02,27,18.00
2009,07,28,02,28,17.90
2009,07,28,02,29,17.90
2009,07,28,02,30,17.90
2009,07,28,02,31,17.90
2009,07,28,02,32,17.90
2009,07,28,02,33,17.90
2009,07,28,02,34,17.90
2009,07,28,02,35,17.90
2009,07,28,02,36,17.90
2009,07,28,02,37,17.90
2009,07,28,02,38,17.90
2009,07,28,02,39,17.90
2009,07,28,02,40,17.90
2009,07,28,02,41,17.90
2009,07,28,02,42,17.90
2009,07,28,02,43,17.80
2009,07,28,02,44,17.80
2009,07,28,02,45,17.80
2009,07,28,02,46,17.80
2009,07,28,02,47,17.80
2009,07,28,02,48,17.80
2009,07,28,02,49,17.80
2009,07,28,02,50,17.80
2009,07,28,02,51,17.80
2009,07,28,02,52,17.80
2009,07,28,02,53,17.80
2009,07,28,02,54,17.80
2009,07,28,02,55,17.80
2009,07,28,02,56,17.80
2009,07,28,02,57,17.80
2009,07,28,02,58,17.70
2009,07,28,02,59,17.70
2009,07,28,03,00,17.70
2009,07,28,03,01,17.70
2009,07,28,03,02,17.70
2009,07,28,03,03,17.70
2009,07,28,03,04,17.80
2009,07,28,03,05,17.80
2009,07,28,03,06,17.80
2009,07,28,03,07,17.80
2009,07,28,03,08,17.80
2009,07,28,03,09,17.80
2009,07,28,03,10,17.80
2009,07,28,03,11,17.80
2009,07,28,03,12,17.80
2009,07,28,03,13,17.80
2009,07,28,03,14,17.80
2009,07,28,03,15,17.80
2009,07,28,03,16,17.80
2009,07,28,03,17,17.80
2009,07,28,03,18,17.80
2009,07,28,03,19,17.80
2009,07,28,03,20,17.80
2009,07,28,03,21,17.80
2009,07,28,03,22,17.80
2009,07,28,03,23,17.80
2009,07,28,03,24,17.80
2009,07,28,03,25,17.70
2009,07,28,03,26,17.80
2009,07,28,03,27,17.80
2009,07,28,03,28,17.70
2009,07,28,03,29,17.70
2009,07,28,03,30,17.70
2009,07,28,03,31,17.70
2009,07,28,03,32,17.70
2009,07,28,03,33,17.70
2009,07,28,03,34,17.70
2009,07,28,03,35,17.70
2009,07,28,03,36,17.70
2009,07,28,03,37,17.70
2009,07,28,03,38,17.70
2009,07,28,03,39,17.70
2009,07,28,03,40,17.70
2009,07,28,03,41,17.70
2009,07,28,03,42,17.70
2009,07,28,03,43,17.70
2009,07,28,03,44,17.70
2009,07,28,03,45,17.70
2009,07,28,03,46,17.70
2009,07,28,03,47,17.70
2009,07,28,03,48,17.70
2009,07,28,03,49,17.70
2009,07,28,03,50,17.70
2009,07,28,03,51,17.60
2009,07,28,03,52,17.70
2009,07,28,03,53,17.70
2009,07,28,03,54,17.70
2009,07,28,03,55,17.70
2009,07,28,03,56,17.70
2009,07,28,03,57,17.70
2009,07,28,03,58,17.70
2009,07,28,03,59,17.70
2009,07,28,04,00,17.70
2009,07,28,04,01,17.70
2009,07,28,04,02,17.70
2009,07,28,04,03,17.70
2009,07,28,04,04,17.70
2009,07,28,04,05,17.70
2009,07,28,04,06,17.70
2009,07,28,04,07,17.70
2009,07,28,04,08,17.60
2009,07,28,04,09,17.60
2009,07,28,04,10,17.60
2009,07,28,04,11,17.60
2009,07,28,04,12,17.60
2009,07,28,04,13,17.60
2009,07,28,04,14,17.60
2009,07,28,04,15,17.60
2009,07,28,04,16,17.60
2009,07,28,04,17,17.60
2009,07,28,04,18,17.60
2009,07,28,04,19,17.60
2009,07,28,04,20,17.60
2009,07,28,04,21,17.70
2009,07,28,04,22,17.70
2009,07,28,04,23,17.70
2009,07,28,04,24,17.70
2009,07,28,04,25,17.70
2009,07,28,04,26,17.70
2009,07,28,04,27,17.70
2009,07,28,04,28,17.70
2009,07,28,04,29,17.70
2009,07,28,04,30,17.70
2009,07,28,04,31,17.70
2009,07,28,04,32,17.70
2009,07,28,04,33,17.60
2009,07,28,04,34,17.60
2009,07,28,04,35,17.60
2009,07,28,04,36,17.60
2009,07,28,04,37,17.70
2009,07,28,04,38,17.70
2009,07,28,04,39,17.70
2009,07,28,04,40,17.70
2009,07,28,04,41,17.70
2009,07,28,04,42,17.70
2009,07,28,04,43,17.70
2009,07,28,04,44,17.70
2009,07,28,04,45,17.70
2009,07,28,04,46,17.70
2009,07,28,04,47,17.70
2009,07,28,04,48,17.70
2009,07,28,04,49,17.70
2009,07,28,04,50,17.70
2009,07,28,04,51,17.70
2009,07,28,04,52,17.70
2009,07,28,04,53,17.70
2009,07,28,04,54,17.70
2009,07,28,04,55,17.70
2009,07,28,04,56,17.70
2009,07,28,04,57,17.60
2009,07,28,04,58,17.60
2009,07,28,04,59,17.60
2009,07,28,05,00,17.60
2009,07,28,05,01,17.60
2009,07,28,05,02,17.60
2009,07,28,05,03,17.60
2009,07,28,05,04,17.60
2009,07,28,05,05,17.60
2009,07,28,05,06,17.60
2009,07,28,05,07,17.60
2009,07,28,05,08,17.60
2009,07,28,05,09,17.60
2009,07,28,05,10,17.60
2009,07,28,05,11,17.60
2009,07,28,05,12,17.60
2009,07,28,05,13,17.60
2009,07,28,05,14,17.60
2009,07,28,05,15,17.50
2009,07,28,05,16,17.50
2009,07,28,05,17,17.50
2009,07,28,05,18,17.50
2009,07,28,05,19,17.50
2009,07,28,05,20,17.60
2009,07,28,05,21,17.60
2009,07,28,05,22,17.60
2009,07,28,05,23,17.60
2009,07,28,05,24,17.60
2009,07,28,05,25,17.60
2009,07,28,05,26,17.60
2009,07,28,05,27,17.60
2009,07,28,05,28,17.60
2009,07,28,05,29,17.60
2009,07,28,05,30,17.60
2009,07,28,05,31,17.60
2009,07,28,05,32,17.60
2009,07,28,05,33,17.60
2009,07,28,05,34,17.60
2009,07,28,05,35,17.60
2009,07,28,05,36,17.60
2009,07,28,05,37,17.60
2009,07,28,05,38,17.60
2009,07,28,05,39,17.60
2009,07,28,05,40,17.60
2009,07,28,05,41,17.60
2009,07,28,05,42,17.70
2009,07,28,05,43,17.70
2009,07,28,05,44,17.70
2009,07,28,05,45,17.70
2009,07,28,05,46,17.70
2009,07,28,05,47,17.70
2009,07,28,05,48,17.70
2009,07,28,05,49,17.70
2009,07,28,05,50,17.70
2009,07,28,05,51,17.70
2009,07,28,05,52,17.70
2009,07,28,05,53,17.70
2009,07,28,05,54,17.70
2009,07,28,05,55,17.80
2009,07,28,05,56,17.80
2009,07,28,05,57,17.80
2009,07,28,05,58,17.80
2009,07,28,05,59,17.80
2009,07,28,06,00,17.80
2009,07,28,06,01,17.80
2009,07,28,06,02,17.80
2009,07,28,06,03,17.80
2009,07,28,06,04,17.80
2009,07,28,06,05,17.80
2009,07,28,06,06,17.80
2009,07,28,06,07,17.80
2009,07,28,06,08,17.80
2009,07,28,06,09,17.80
2009,07,28,06,10,17.80
2009,07,28,06,11,17.80
2009,07,28,06,12,17.80
2009,07,28,06,13,17.80
2009,07,28,06,14,17.80
2009,07,28,06,15,17.90
2009,07,28,06,16,17.80
2009,07,28,06,17,17.90
2009,07,28,06,18,17.90
2009,07,28,06,19,17.90
2009,07,28,06,20,17.90
2009,07,28,06,21,17.90
2009,07,28,06,22,17.90
2009,07,28,06,23,17.90
2009,07,28,06,24,17.90
2009,07,28,06,25,17.90
2009,07,28,06,26,17.90
2009,07,28,06,27,17.90
2009,07,28,06,28,17.90
2009,07,28,06,29,17.90
2009,07,28,06,30,17.90
2009,07,28,06,31,18.00
2009,07,28,06,32,18.10
2009,07,28,06,33,18.10
2009,07,28,06,34,18.10
2009,07,28,06,35,18.20
2009,07,28,06,36,18.20
2009,07,28,06,37,18.20
2009,07,28,06,38,18.20
2009,07,28,06,39,18.20
2009,07,28,06,40,18.30
2009,07,28,06,41,18.30
2009,07,28,06,42,18.30
2009,07,28,06,43,18.40
2009,07,28,06,44,18.40
2009,07,28,06,45,18.40
2009,07,28,06,46,18.50
2009,07,28,06,47,18.50
2009,07,28,06,48,18.50
2009,07,28,06,49,18.60
2009,07,28,06,50,18.60
2009,07,28,06,51,18.70
2009,07,28,06,52,18.70
2009,07,28,06,53,18.70
2009,07,28,06,54,18.80
2009,07,28,06,55,18.80
2009,07,28,06,56,18.80
2009,07,28,06,57,18.90
2009,07,28,06,58,18.90
2009,07,28,06,59,18.90
2009,07,28,07,00,18.90
2009,07,28,07,01,18.90
2009,07,28,07,02,18.90
2009,07,28,07,03,18.90
2009,07,28,07,04,19.00
2009,07,28,07,05,19.10
2009,07,28,07,06,19.10
2009,07,28,07,07,19.10
2009,07,28,07,08,19.10
2009,07,28,07,09,19.10
2009,07,28,07,10,19.20
2009,07,28,07,11,19.20
2009,07,28,07,12,19.30
2009,07,28,07,13,19.30
2009,07,28,07,14,19.40
2009,07,28,07,15,19.40
2009,07,28,07,16,19.40
2009,07,28,07,17,19.50
2009,07,28,07,18,19.50
2009,07,28,07,19,19.60
2009,07,28,07,20,19.60
2009,07,28,07,21,19.70
2009,07,28,07,22,19.80
2009,07,28,07,23,19.90
2009,07,28,07,24,20.00
2009,07,28,07,25,20.10
2009,07,28,07,26,20.20
2009,07,28,07,27,20.30
2009,07,28,07,28,20.40
2009,07,28,07,29,20.50
2009,07,28,07,30,20.60
2009,07,28,07,31,20.70
2009,07,28,07,32,20.80
2009,07,28,07,33,20.80
2009,07,28,07,34,21.00
2009,07,28,07,35,21.00
2009,07,28,07,36,21.10
2009,07,28,07,37,21.20
2009,07,28,07,38,21.30
2009,07,28,07,39,21.40
2009,07,28,07,40,21.50
2009,07,28,07,41,21.60
2009,07,28,07,42,21.60
2009,07,28,07,43,21.60
2009,07,28,07,44,21.70
2009,07,28,07,45,21.70
2009,07,28,07,46,21.80
2009,07,28,07,47,21.80
2009,07,28,07,48,21.90
2009,07,28,07,49,21.90
2009,07,28,07,50,22.00
2009,07,28,07,51,22.00
2009,07,28,07,52,22.00
2009,07,28,07,53,22.10
2009,07,28,07,54,22.10
2009,07,28,07,55,22.20
2009,07,28,07,56,22.20
2009,07,28,07,57,22.30
2009,07,28,07,58,22.30
2009,07,28,07,59,22.30
2009,07,28,08,00,22.30
2009,07,28,08,01,22.30
2009,07,28,08,02,22.40
2009,07,28,08,03,22.40
2009,07,28,08,04,22.40
2009,07,28,08,05,22.40
2009,07,28,08,06,22.40
2009,07,28,08,07,22.40
2009,07,28,08,08,22.50
2009,07,28,08,09,22.50
2009,07,28,08,10,22.50
2009,07,28,08,11,22.50
2009,07,28,08,12,22.50
2009,07,28,08,13,22.50
2009,07,28,08,14,22.50
2009,07,28,08,15,22.60
2009,07,28,08,16,22.60
2009,07,28,08,17,22.60
2009,07,28,08,18,22.70
2009,07,28,08,19,22.70
2009,07,28,08,20,22.80
2009,07,28,08,21,22.80
2009,07,28,08,22,22.90
2009,07,28,08,23,22.90
2009,07,28,08,24,22.90
2009,07,28,08,25,23.00
2009,07,28,08,26,23.10
2009,07,28,08,27,23.10
2009,07,28,08,28,23.20
2009,07,28,08,29,23.20
2009,07,28,08,30,23.30
2009,07,28,08,31,23.30
2009,07,28,08,32,23.30
2009,07,28,08,33,23.30
2009,07,28,08,34,23.30
2009,07,28,08,35,23.30
2009,07,28,08,36,23.30
2009,07,28,08,37,23.30
2009,07,28,08,38,23.40
2009,07,28,08,39,23.40
2009,07,28,08,40,23.40
2009,07,28,08,41,23.50
2009,07,28,08,42,23.60
2009,07,28,08,43,23.60
2009,07,28,08,44,23.60
2009,07,28,08,45,23.60
2009,07,28,08,46,23.60
2009,07,28,08,47,23.70
2009,07,28,08,48,23.70
2009,07,28,08,49,23.70
2009,07,28,08,50,23.70
2009,07,28,08,51,23.70
2009,07,28,08,52,23.70
2009,07,28,08,53,23.80
2009,07,28,08,54,23.80
2009,07,28,08,55,23.90
2009,07,28,08,56,24.00
2009,07,28,08,57,24.10
2009,07,28,08,58,24.10
2009,07,28,08,59,24.10
2009,07,28,09,00,24.10
2009,07,28,09,01,24.10
2009,07,28,09,02,24.10
2009,07,28,09,03,24.10
2009,07,28,09,04,24.20
2009,07,28,09,05,24.20
2009,07,28,09,06,24.20
2009,07,28,09,07,24.20
2009,07,28,09,08,24.20
2009,07,28,09,09,24.30
2009,07,28,09,10,24.30
2009,07,28,09,11,24.30
2009,07,28,09,12,24.30
2009,07,28,09,13,24.40
2009,07,28,09,14,24.40
2009,07,28,09,15,24.50
2009,07,28,09,16,24.50
2009,07,28,09,17,24.50
2009,07,28,09,18,24.60
2009,07,28,09,19,24.60
2009,07,28,09,20,24.60
2009,07,28,09,21,24.60
2009,07,28,09,22,24.60
2009,07,28,09,23,24.60
2009,07,28,09,24,24.70
2009,07,28,09,25,24.70
2009,07,28,09,26,24.70
2009,07,28,09,27,24.80
2009,07,28,09,28,24.90
2009,07,28,09,29,24.90
2009,07,28,09,30,25.00
2009,07,28,09,31,25.00
2009,07,28,09,32,25.00
2009,07,28,09,33,25.10
2009,07,28,09,34,25.10
2009,07,28,09,35,25.00
2009,07,28,09,36,25.00
2009,07,28,09,37,25.10
2009,07,28,09,38,25.10
2009,07,28,09,39,25.10
2009,07,28,09,40,25.20
2009,07,28,09,41,25.10
2009,07,28,09,42,25.10
2009,07,28,09,43,25.10
2009,07,28,09,44,25.20
2009,07,28,09,45,25.20
2009,07,28,09,46,25.30
2009,07,28,09,47,25.30
2009,07,28,09,48,25.20
2009,07,28,09,49,25.20
2009,07,28,09,50,25.20
2009,07,28,09,51,25.20
2009,07,28,09,52,25.20
2009,07,28,09,53,25.30
2009,07,28,09,54,25.30
2009,07,28,09,55,25.30
2009,07,28,09,56,25.40
2009,07,28,09,57,25.30
2009,07,28,09,58,25.30
2009,07,28,09,59,25.30
2009,07,28,10,00,25.30
2009,07,28,10,01,25.30
2009,07,28,10,02,25.30
2009,07,28,10,03,25.20
2009,07,28,10,04,25.30
2009,07,28,10,05,25.30
2009,07,28,10,06,25.30
2009,07,28,10,07,25.30
2009,07,28,10,08,25.30
2009,07,28,10,09,25.30
2009,07,28,10,10,25.30
2009,07,28,10,11,25.40
2009,07,28,10,12,25.40
2009,07,28,10,13,25.40
2009,07,28,10,14,25.50
2009,07,28,10,15,25.50
2009,07,28,10,16,25.50
2009,07,28,10,17,25.50
2009,07,28,10,18,25.60
2009,07,28,10,19,25.70
2009,07,28,10,20,25.70
2009,07,28,10,21,25.80
2009,07,28,10,22,25.80
2009,07,28,10,23,25.80
2009,07,28,10,24,25.80
2009,07,28,10,25,25.70
2009,07,28,10,26,25.70
2009,07,28,10,27,25.70
2009,07,28,10,28,25.60
2009,07,28,10,29,25.70
2009,07,28,10,30,25.70
2009,07,28,10,31,25.70
2009,07,28,10,32,25.70
2009,07,28,10,33,25.70
2009,07,28,10,34,25.80
2009,07,28,10,35,25.90
2009,07,28,10,36,25.90
2009,07,28,10,37,26.00
2009,07,28,10,38,26.00
2009,07,28,10,39,26.10
2009,07,28,10,40,26.10
2009,07,28,10,41,26.10
2009,07,28,10,42,26.10
2009,07,28,10,43,26.10
2009,07,28,10,44,26.10
2009,07,28,10,45,26.00
2009,07,28,10,46,26.10
2009,07,28,10,47,26.10
2009,07,28,10,48,26.20
2009,07,28,10,49,26.30
2009,07,28,10,50,26.30
2009,07,28,10,51,26.40
2009,07,28,10,52,26.40
2009,07,28,10,53,26.50
2009,07,28,10,54,26.60
2009,07,28,10,55,26.60
2009,07,28,10,56,26.60
2009,07,28,10,57,26.60
2009,07,28,10,58,26.60
2009,07,28,10,59,26.60
2009,07,28,11,00,26.70
2009,07,28,11,01,26.80
2009,07,28,11,02,26.90
2009,07,28,11,03,26.90
2009,07,28,11,04,27.00
2009,07,28,11,05,27.10
2009,07,28,11,06,27.20
2009,07,28,11,07,27.30
2009,07,28,11,08,27.30
2009,07,28,11,09,27.30
2009,07,28,11,10,27.30
2009,07,28,11,11,27.40
2009,07,28,11,12,27.40
2009,07,28,11,13,27.40
2009,07,28,11,14,27.40
2009,07,28,11,15,27.40
2009,07,28,11,16,27.50
2009,07,28,11,17,27.60
2009,07,28,11,18,27.60
2009,07,28,11,19,27.50
2009,07,28,11,20,27.50
2009,07,28,11,21,27.40
2009,07,28,11,22,27.40
2009,07,28,11,23,27.40
2009,07,28,11,24,27.40
2009,07,28,11,25,27.40
2009,07,28,11,26,27.40
2009,07,28,11,27,27.60
2009,07,28,11,28,27.60
2009,07,28,11,29,27.60
2009,07,28,11,30,27.70
2009,07,28,11,31,27.70
2009,07,28,11,32,27.80
2009,07,28,11,33,27.90
2009,07,28,11,34,27.90
2009,07,28,11,35,27.90
2009,07,28,11,36,27.90
2009,07,28,11,37,27.90
2009,07,28,11,38,27.90
2009,07,28,11,39,28.00
2009,07,28,11,40,28.00
2009,07,28,11,41,28.10
2009,07,28,11,42,28.10
2009,07,28,11,43,28.10
2009,07,28,11,44,28.10
2009,07,28,11,45,28.10
2009,07,28,11,46,28.10
2009,07,28,11,47,28.20
2009,07,28,11,48,28.20
2009,07,28,11,49,28.20
2009,07,28,11,50,28.30
2009,07,28,11,51,28.30
2009,07,28,11,52,28.40
2009,07,28,11,53,28.50
2009,07,28,11,54,28.60
2009,07,28,11,55,28.60
2009,07,28,11,56,28.80
2009,07,28,11,57,28.80
2009,07,28,11,58,28.90
2009,07,28,11,59,28.90
2009,07,28,12,00,28.90
2009,07,28,12,01,28.90
2009,07,28,12,02,28.90
2009,07,28,12,03,28.90
2009,07,28,12,04,28.90
2009,07,28,12,05,28.90
2009,07,28,12,06,28.90
2009,07,28,12,07,28.90
2009,07,28,12,08,28.90
2009,07,28,12,09,28.90
2009,07,28,12,10,28.90
2009,07,28,12,11,28.90
2009,07,28,12,12,28.90
2009,07,28,12,13,28.80
2009,07,28,12,14,28.90
2009,07,28,12,15,28.90
2009,07,28,12,16,28.90
2009,07,28,12,17,28.90
2009,07,28,12,18,28.90
2009,07,28,12,19,28.90
2009,07,28,12,20,28.90
2009,07,28,12,21,29.00
2009,07,28,12,22,29.10
2009,07,28,12,23,29.10
2009,07,28,12,24,29.00
2009,07,28,12,25,28.90
2009,07,28,12,26,29.00
2009,07,28,12,27,29.10
2009,07,28,12,28,29.10
2009,07,28,12,29,29.10
2009,07,28,12,30,29.10
2009,07,28,12,31,29.20
2009,07,28,12,32,29.30
2009,07,28,12,33,29.30
2009,07,28,12,34,29.40
2009,07,28,12,35,29.40
2009,07,28,12,36,29.50
2009,07,28,12,37,29.50
2009,07,28,12,38,29.50
2009,07,28,12,39,29.60
2009,07,28,12,40,29.60
2009,07,28,12,41,29.70
2009,07,28,12,42,29.80
2009,07,28,12,43,29.80
2009,07,28,12,44,29.80
2009,07,28,12,45,29.80
2009,07,28,12,46,29.90
2009,07,28,12,47,29.90
2009,07,28,12,48,29.90
2009,07,28,12,49,29.90
2009,07,28,12,50,29.90
2009,07,28,12,51,29.90
2009,07,28,12,52,30.00
2009,07,28,12,53,30.00
2009,07,28,12,54,30.10
2009,07,28,12,55,30.10
2009,07,28,12,56,30.20
2009,07,28,12,57,30.30
2009,07,28,12,58,30.30
2009,07,28,12,59,30.20
2009,07,28,13,00,30.20
2009,07,28,13,01,30.20
2009,07,28,13,02,30.20
2009,07,28,13,03,30.30
2009,07,28,13,04,30.30
2009,07,28,13,05,30.30
2009,07,28,13,06,30.30
2009,07,28,13,07,30.20
2009,07,28,13,08,30.20
2009,07,28,13,09,30.20
2009,07,28,13,10,30.20
2009,07,28,13,11,30.30
2009,07,28,13,12,30.30
2009,07,28,13,13,30.40
2009,07,28,13,14,30.40
2009,07,28,13,15,30.50
2009,07,28,13,16,30.60
2009,07,28,13,17,30.60
2009,07,28,13,18,30.60
2009,07,28,13,19,30.60
2009,07,28,13,20,30.60
2009,07,28,13,21,30.60
2009,07,28,13,22,30.60
2009,07,28,13,23,30.60
2009,07,28,13,24,30.70
2009,07,28,13,25,30.70
2009,07,28,13,26,30.70
2009,07,28,13,27,30.80
2009,07,28,13,28,30.80
2009,07,28,13,29,30.80
2009,07,28,13,30,30.80
2009,07,28,13,31,30.90
2009,07,28,13,32,30.90
2009,07,28,13,33,31.00
2009,07,28,13,34,31.00
2009,07,28,13,35,31.00
2009,07,28,13,36,31.00
2009,07,28,13,37,31.00
2009,07,28,13,38,31.00
2009,07,28,13,39,31.00
2009,07,28,13,40,31.10
2009,07,28,13,41,31.10
2009,07,28,13,42,31.10
2009,07,28,13,43,31.20
2009,07,28,13,44,31.20
2009,07,28,13,45,31.30
2009,07,28,13,46,31.40
2009,07,28,13,47,31.40
2009,07,28,13,48,31.50
2009,07,28,13,49,31.60
2009,07,28,13,50,31.60
2009,07,28,13,51,31.80
2009,07,28,13,52,31.90
2009,07,28,13,53,32.00
2009,07,28,13,54,32.10
2009,07,28,13,55,32.20
2009,07,28,13,56,32.30
2009,07,28,13,57,32.40
2009,07,28,13,58,32.40
2009,07,28,13,59,32.50
2009,07,28,14,00,32.50
2009,07,28,14,01,32.60
2009,07,28,14,02,32.60
2009,07,28,14,03,32.60
2009,07,28,14,04,32.60
2009,07,28,14,05,32.60
2009,07,28,14,06,32.60
2009,07,28,14,07,32.60
2009,07,28,14,08,32.60
2009,07,28,14,09,32.60
2009,07,28,14,10,32.60
2009,07,28,14,11,32.60
2009,07,28,14,12,32.50
2009,07,28,14,13,32.40
2009,07,28,14,14,32.30
2009,07,28,14,15,32.30
2009,07,28,14,16,32.20
2009,07,28,14,17,32.20
2009,07,28,14,18,32.20
2009,07,28,14,19,32.20
2009,07,28,14,20,32.20
2009,07,28,14,21,32.20
2009,07,28,14,22,32.20
2009,07,28,14,23,32.30
2009,07,28,14,24,32.40
2009,07,28,14,25,32.40
2009,07,28,14,26,32.40
2009,07,28,14,27,32.50
2009,07,28,14,28,32.50
2009,07,28,14,29,32.50
2009,07,28,14,30,32.50
2009,07,28,14,31,32.50
2009,07,28,14,32,32.50
2009,07,28,14,33,32.60
2009,07,28,14,34,32.60
2009,07,28,14,35,32.60
2009,07,28,14,36,32.50
2009,07,28,14,37,32.40
2009,07,28,14,38,32.30
2009,07,28,14,39,32.30
2009,07,28,14,40,32.20
2009,07,28,14,41,32.20
2009,07,28,14,42,32.20
2009,07,28,14,43,32.20
2009,07,28,14,44,32.20
2009,07,28,14,45,32.20
2009,07,28,14,46,32.10
2009,07,28,14,47,32.10
2009,07,28,14,48,32.10
2009,07,28,14,49,32.10
2009,07,28,14,50,32.00
2009,07,28,14,51,31.90
2009,07,28,14,52,31.90
2009,07,28,14,53,31.90
2009,07,28,14,54,31.90
2009,07,28,14,55,31.90
2009,07,28,14,56,31.90
2009,07,28,14,57,31.90
2009,07,28,14,58,31.90
2009,07,28,14,59,32.00
2009,07,28,15,00,32.10
2009,07,28,15,01,32.20
2009,07,28,15,02,32.20
2009,07,28,15,03,32.20
2009,07,28,15,04,32.30
2009,07,28,15,05,32.30
2009,07,28,15,06,32.30
2009,07,28,15,07,32.30
2009,07,28,15,08,32.30
2009,07,28,15,09,32.40
2009,07,28,15,10,32.50
2009,07,28,15,11,32.50
2009,07,28,15,12,32.50
2009,07,28,15,13,32.60
2009,07,28,15,14,32.80
2009,07,28,15,15,32.80
2009,07,28,15,16,32.80
2009,07,28,15,17,32.90
2009,07,28,15,18,32.80
2009,07,28,15,19,32.80
2009,07,28,15,20,32.60
2009,07,28,15,21,32.60
2009,07,28,15,22,32.60
2009,07,28,15,23,32.60
2009,07,28,15,24,32.80
2009,07,28,15,25,32.70
2009,07,28,15,26,32.60
2009,07,28,15,27,32.60
2009,07,28,15,28,32.60
2009,07,28,15,29,32.60
2009,07,28,15,30,32.60
2009,07,28,15,31,32.60
2009,07,28,15,32,32.60
2009,07,28,15,33,32.60
2009,07,28,15,34,32.60
2009,07,28,15,35,32.60
2009,07,28,15,36,32.60
2009,07,28,15,37,32.60
2009,07,28,15,38,32.60
2009,07,28,15,39,32.60
2009,07,28,15,40,32.60
2009,07,28,15,41,32.50
2009,07,28,15,42,32.60
2009,07,28,15,43,32.60
2009,07,28,15,44,32.60
2009,07,28,15,45,32.80
2009,07,28,15,46,32.80
2009,07,28,15,47,32.90
2009,07,28,15,48,32.90
2009,07,28,15,49,33.00
2009,07,28,15,50,33.10
2009,07,28,15,51,33.10
2009,07,28,15,52,33.20
2009,07,28,15,53,33.20
2009,07,28,15,54,33.20
2009,07,28,15,55,33.20
2009,07,28,15,56,33.20
2009,07,28,15,57,33.40
2009,07,28,15,58,33.40
2009,07,28,15,59,33.20
2009,07,28,16,00,33.20
2009,07,28,16,01,33.10
2009,07,28,16,02,33.10
2009,07,28,16,03,33.10
2009,07,28,16,04,33.10
2009,07,28,16,05,33.10
2009,07,28,16,06,33.10
2009,07,28,16,07,33.10
2009,07,28,16,08,33.10
2009,07,28,16,09,33.10
2009,07,28,16,10,33.10
2009,07,28,16,11,33.10
2009,07,28,16,12,33.10
2009,07,28,16,13,33.20
2009,07,28,16,14,33.20
2009,07,28,16,15,33.40
2009,07,28,16,16,33.40
2009,07,28,16,17,33.50
2009,07,28,16,18,33.50
2009,07,28,16,19,33.50
2009,07,28,16,20,33.50
2009,07,28,16,21,33.60
2009,07,28,16,22,33.70
2009,07,28,16,23,33.70
2009,07,28,16,24,33.80
2009,07,28,16,25,33.90
2009,07,28,16,26,34.00
2009,07,28,16,27,34.00
2009,07,28,16,28,33.90
2009,07,28,16,29,34.00
2009,07,28,16,30,33.80
2009,07,28,16,31,33.70
2009,07,28,16,32,33.60
2009,07,28,16,33,33.40
2009,07,28,16,34,33.20
2009,07,28,16,35,33.10
2009,07,28,16,36,33.00
2009,07,28,16,37,33.00
2009,07,28,16,38,33.00
2009,07,28,16,39,33.10
2009,07,28,16,40,33.20
2009,07,28,16,41,33.20
2009,07,28,16,42,33.40
2009,07,28,16,43,33.50
2009,07,28,16,44,33.40
2009,07,28,16,45,33.40
2009,07,28,16,46,33.40
2009,07,28,16,47,33.40
2009,07,28,16,48,33.30
2009,07,28,16,49,33.20
2009,07,28,16,50,33.20
2009,07,28,16,51,33.10
2009,07,28,16,52,33.10
2009,07,28,16,53,33.10
2009,07,28,16,54,33.10
2009,07,28,16,55,33.00
2009,07,28,16,56,32.90
2009,07,28,16,57,33.00
2009,07,28,16,58,33.10
2009,07,28,16,59,33.20
2009,07,28,17,00,33.40
2009,07,28,17,01,33.20
2009,07,28,17,02,33.20
2009,07,28,17,03,33.20
2009,07,28,17,04,33.20
2009,07,28,17,05,33.30
2009,07,28,17,06,33.40
2009,07,28,17,07,33.40
2009,07,28,17,08,33.40
2009,07,28,17,09,33.20
2009,07,28,17,10,33.30
2009,07,28,17,11,33.40
2009,07,28,17,12,33.40
2009,07,28,17,13,33.40
2009,07,28,17,14,33.40
2009,07,28,17,15,33.20
2009,07,28,17,16,33.20
2009,07,28,17,17,33.30
2009,07,28,17,18,33.40
2009,07,28,17,19,33.40